Location: Noordwijk
(52.2400°N, 4.4500°E)
Time: 12:08:00
(UTC+00:00)

AO-85 - Pass Details

Date: 04 December 2022
Orbit: 516 x 753 km, 64.8° (Epoch: 04 January)

Event Time Altitude Azimuth Distance (km) Brightness Sun altitude
Rises 19:12:00 0° 303° (WNW) 2,844 ? -32.6°
Reaches altitude 10° 19:15:13 10° 327° (NNW) 1,890 ? -33.1°
Enters shadow 19:15:22 11° 329° (NNW) 1,854 ? -33.1°
